GFSNIL_prec_cloud_003.txt.gz
Cloud_Cover
5 33 60 66 35 4 0 0 0 0 0 5 5 3 0 0 0 0 3 5 0 0
5 5 5 5 5 5 0 0 0 1 5 1 0 0 0 3 5 5 5 5 5 5
7 50 5 5 5 0 0 0 5 5 0 4 0 2 5 5 5 5 5 4 2 0
25 5 5 5 4 0 4 5 5 3 1 2 5 5 5 5 5 5 5 5 0 0
66 27 5 5 2 5 5 57 1 1 4 5 5 5 5 5 5 5 5 5 3 0
25 5 5 5 5 5 5 0 1 5 5 5 5 5 5 5 5 5 5 3 0 0
5 5 5 5 5 5 8 5 5 5 6 16 5 5 5 5 5 5 3 0 0 0
5 5 5 5 61 14 12 5 5 65 84 13 5 5 5 5 5 5 0 2 0 0
5 5 49 78 22 11 18 99 81 6 4 5 5 62 11 5 5 5 0 0 0 0
5 92 82 49 81 100 100 76 5 5 5 57 46 5 5 5 5 0 0 0 0 0
87 98 100 81 99 71 5 5 5 5 78 46 5 5 5 5 5 0 2 0 0 2
99 91 93 46 5 5 5 5 29 93 10 5 5 5 0 5 5 5 5 0 5 14
90 99 50 56 5 5 10 100 67 67 26 5 3 5 4 5 5 5 5 21 17 5
100 62 5 5 5 90 84 39 77 31 5 5 5 5 3 10 63 5 95 15 5 18

GFSNIL_prec_cloud_006.txt.gz
Cloud_Cover
5 0 0 2 5 5 72 64 7 0 0 0 0 0 1 0 0 0 2 5 5 5
5 5 5 3 5 5 5 5 4 0 0 0 3 5 0 0 0 5 5 5 5 5
5 5 5 5 5 5 5 5 0 0 0 5 3 0 0 5 5 5 64 6 5 5
87 72 23 5 20 5 5 5 5 5 3 5 0 0 4 5 12 99 57 5 2 5
100 94 92 74 5 5 5 5 5 5 5 2 0 5 5 97 32 6 4 0 5 4
99 96 79 8 5 5 5 5 5 5 5 4 20 82 23 5 2 0 1 5 0 0
88 94 20 5 5 5 5 5 5 5 5 30 6 5 3 0 0 5 5 5 5 0
100 58 5 41 69 5 5 66 36 44 5 5 5 1 0 1 5 5 5 4 1 4
9 10 96 70 6 5 74 79 5 5 5 2 0 0 2 5 5 5 3 5 5 5
74 75 59 80 37 84 66 5 5 2 0 0 0 4 5 5 5 5 5 5 5 5
68 94 76 61 73 76 5 5 5 0 0 3 6 5 5 4 15 46 30 17 8 5
47 45 74 98 18 5 4 0 0 2 5 5 5 5 5 56 50 31 10 73 11 5
56 72 42 5 5 5 1 0 5 5 5 5 3 5 5 5 72 17 5 64 34 5
21 5 5 5 4 1 5 5 5 5 4 5 5 5 5 6 64 44 100 48 14 5

GFSNIL_prec_cloud_009.txt.gz
Cloud_Cover
100 44 100 2 0 5 1 2 5 5 6 5 4 3 0 0 0 0 0 0 0 0
100 100 58 5 5 5 4 5 5 5 5 5 5 5 0 0 0 0 0 0 5 5
99 46 22 63 10 5 5 5 5 5 5 5 5 5 5 0 0 0 1 1 4 3
5 72 94 92 77 76 34 5 57 5 5 5 5 5 5 1 5 5 5 5 5 3
49 91 66 76 88 100 41 70 56 15 5 5 5 5 5 5 5 5 5 5 0 1
98 100 77 72 100 64 82 74 82 21 5 5 5 5 3 5 5 5 2 0 5 2
100 100 82 71 35 92 100 94 10 5 5 15 26 5 5 5 3 0 1 5 2 0
100 100 22 5 95 100 74 57 20 38 26 78 5 5 3 0 0 4 5 0 0 0
100 65 5 99 95 57 51 59 72 47 100 8 4 0 0 0 5 2 5 0 0 0
44 31 100 94 67 55 76 80 70 95 5 0 0 0 4 5 5 5 0 0 2 5
75 100 87 73 86 93 78 87 40 4 0 0 2 5 5 4 5 5 5 5 5 5
100 96 95 99 71 63 73 5 1 0 0 5 5 4 0 5 5 5 5 2 5 5
100 99 60 51 69 5 5 0 0 1 5 5 3 0 5 5 10 60 31 99 100 46
66 48 52 12 5 4 2 1 5 5 4 0 0 4 5 5 22 92 99 100 100 69

GFSNIL_prec_cloud_012.txt.gz
Cloud_Cover
70 100 100 100 100 83 4 4 5 5 5 5 5 5 4 2 0 0 0 0 0 0
97 100 100 84 100 5 5 5 5 6 17 56 5 5 5 3 1 5 0 0 0 0
100 76 100 100 68 76 82 88 94 100 97 75 68 5 5 3 5 5 1 0 0 0
100 96 100 100 98 80 94 100 100 98 76 82 27 5 5 5 5 5 2 0 0 0
100 100 100 100 95 100 100 100 93 85 66 85 70 5 5 5 5 5 0 0 0 0
100 93 93 96 100 100 99 93 95 63 100 98 16 5 5 5 5 2 0 2 0 0
56 90 88 99 100 100 88 91 70 100 87 55 6 5 5 5 5 0 5 3 0 0
66 100 100 100 100 100 90 67 100 81 84 81 50 5 5 4 0 5 5 1 0 0
100 100 96 100 100 97 62 100 86 95 91 100 14 5 5 3 5 5 3 0 0 2
100 100 100 100 97 76 100 100 99 93 92 9 5 5 5 7 5 5 4 3 5 5
100 100 100 100 100 100 100 100 100 47 49 5 5 6 8 5 5 5 5 5 5 55
100 100 100 100 100 100 100 98 59 8 64 10 5 5 5 6 5 8 5 5 30 84
100 100 100 100 100 100 75 19 84 5 5 5 5 14 9 35 66 5 5 13 87 96
100 100 100 99 98 86 98 76 6 5 5 13 42 14 74 11 5 12 72 99 99 100

GFSNIL_prec_cloud_015.txt.gz
Cloud_Cover
6 4 3 91 39 100 100 100 33 5 52 48 5 5 5 5 5 5 5 5 0 0
40 39 34 99 99 100 100 100 15 5 5 5 5 9 54 5 7 14 5 3 0 0
43 100 99 58 100 100 100 87 60 65 72 74 85 62 11 5 39 5 5 2 5 5
95 100 72 100 100 100 100 59 73 68 75 96 5 42 5 67 11 5 5 5 5 3
100 82 99 100 100 100 85 98 56 37 7 21 84 26 75 85 5 5 5 5 5 0
100 100 100 100 100 100 63 72 67 66 82 28 5 57 100 8 5 24 5 5 2 0
100 100 88 98 100 55 70 87 85 99 87 20 55 100 14 5 72 8 5 5 0 0
100 100 100 100 53 100 100 100 100 99 97 77 100 76 48 68 13 5 3 3 3 0
100 100 99 91 97 100 100 93 81 100 100 100 100 99 93 53 5 5 5 5 5 0
84 34 73 82 100 100 100 100 80 100 100 100 100 100 100 53 5 5 5 5 4 5
99 93 99 100 100 100 100 100 100 100 100 100 100 100 59 5 8 5 5 3 5 5
100 100 100 100 100 100 100 100 100 100 100 100 99 99 97 11 5 5 1 2 5 5
100 100 100 100 100 100 100 100 100 100 100 100 100 61 5 5 4 5 5 5 5 49
100 100 100 100 100 100 100 100 100 100 100 92 24 5 4 5 5 11 8 5 5 5

GFSNIL_prec_cloud_018.txt.gz
Cloud_Cover
90 5 4 31 98 72 83 74 100 100 100 10 5 5 5 5 5 7 37 16 16 5
77 5 5 24 94 100 91 60 100 100 93 5 5 5 20 68 67 8 5 39 40 49
5 81 44 59 39 100 100 100 67 100 46 5 5 5 11 62 45 62 44 5 5 5
99 100 97 99 100 100 100 100 100 100 8 28 55 58 72 88 64 5 5 37 5 5
100 100 100 73 69 100 100 100 100 96 61 100 97 95 59 80 5 5 33 45 5 5
100 100 98 100 100 96 100 100 100 81 94 84 80 78 98 96 54 59 61 6 5 10
100 100 100 100 89 100 100 100 100 98 87 72 87 100 73 100 88 71 54 50 56 16
100 100 100 98 100 100 100 100 100 76 55 96 100 97 91 96 100 97 93 98 51 5
100 100 100 100 100 100 100 82 65 100 100 100 100 100 100 100 100 95 76 87 31 5
100 100 100 100 100 100 91 100 100 100 100 100 100 100 100 100 98 99 98 65 5 5
100 100 100 100 100 100 100 96 100 100 100 100 100 100 68 97 99 100 88 5 5 2
100 100 100 100 100 100 100 100 100 100 100 100 100 92 96 100 100 45 55 8 5 4
100 100 100 100 100 98 89 100 100 99 77 100 91 100 100 100 98 14 100 94 8 5
100 86 100 100 100 100 100 96 97 100 100 100 100 73 88 16 78 34 23 31 6 5

GFSNIL_prec_cloud_021.txt.gz
Cloud_Cover
5 4 6 5 94 79 100 100 100 100 100 51 81 100 38 0 5 5 5 5 5 5
5 5 5 31 98 100 100 100 100 100 100 74 100 100 8 44 5 5 5 5 5 5
5 5 5 42 91 100 100 100 100 100 100 98 100 100 76 33 5 5 5 5 36 6
17 5 62 100 77 100 100 100 100 100 100 100 76 100 72 20 19 14 6 5 98 57
92 59 100 100 100 100 100 100 100 100 100 100 100 94 99 75 97 61 72 86 98 71
98 100 100 100 100 100 100 100 100 100 100 100 100 100 94 90 98 91 100 85 68 62
100 100 100 100 100 100 100 100 100 100 100 100 100 76 70 95 100 100 81 100 67 69
100 100 100 100 100 100 100 100 100 100 100 100 86 74 96 100 100 99 100 100 100 100
100 100 100 100 100 100 100 100 100 100 100 72 83 100 100 100 100 100 100 100 99 72
100 100 100 100 100 100 100 100 100 100 100 100 100 100 100 92 100 100 93 49 100 100
100 100 100 100 100 100 100 100 100 100 100 100 100 98 100 100 94 100 100 100 100 100
100 100 100 100 100 100 100 100 100 100 100 100 100 100 100 100 66 98 100 100 100 81
100 100 100 100 100 100 100 100 100 100 98 44 100 92 80 72 100 96 95 94 16 5
100 100 100 100 100 96 100 84 59 44 100 99 97 82 69 18 39 21 5 30 89 84

GFSNIL_prec_cloud_024.txt.gz
Cloud_Cover
0 2 15 5 5 5 44 36 45 100 90 100 100 84 67 100 24 100 14 5 5 5
2 0 7 5 5 5 8 90 100 100 85 100 100 100 100 41 100 100 5 5 5 5
0 0 4 5 5 5 16 86 100 100 100 100 100 100 100 74 100 100 31 5 5 6
0 1 0 4 5 8 61 72 100 100 100 100 100 100 100 99 84 100 75 34 6 62
0 0 10 0 47 22 100 100 100 100 100 100 100 100 100 100 100 100 95 45 82 99
10 0 11 11 100 68 100 100 100 100 100 100 100 100 100 100 100 85 68 41 14 99
6 23 99 43 100 100 100 100 100 100 100 100 100 100 100 100 99 70 6 77 100 99
38 100 96 96 98 100 100 100 100 100 100 100 100 100 100 100 100 68 99 100 69 95
100 100 100 98 100 58 100 100 100 100 100 100 100 100 100 100 100 100 100 100 74 100
100 100 100 100 100 100 100 100 100 100 100 100 100 100 100 100 100 100 100 78 100 95
100 100 100 100 100 100 100 100 100 100 100 100 100 100 100 100 100 100 100 100 98 95
100 100 100 100 100 100 100 100 100 100 100 100 100 100 100 98 100 100 97 100 90 32
100 100 100 100 100 100 100 100 100 100 100 100 100 100 98 100 98 100 100 98 62 5
100 100 100 100 100 100 100 100 100 100 100 100 100 100 100 100 100 100 100 37 0 0

GFSNIL_prec_cloud_027.txt.gz
Cloud_Cover
36 6 21 5 5 5 13 11 5 5 5 5 83 100 82 100 100 100 100 100 61 87
50 81 63 100 90 70 15 33 18 4 5 59 100 100 100 100 100 100 100 100 74 100
71 33 38 99 100 100 100 92 43 5 5 77 100 100 100 100 100 100 100 100 100 100
57 38 15 5 5 9 92 100 96 5 15 79 100 100 100 100 100 100 100 100 100 98
55 33 43 47 6 7 63 99 99 100 96 100 100 100 100 100 100 100 100 100 100 100
68 94 41 64 80 95 41 67 100 100 100 100 100 100 100 100 100 100 100 100 100 100
91 98 100 100 100 100 100 100 100 97 100 100 100 100 100 100 100 100 100 100 100 100
100 100 100 100 100 100 100 100 100 100 100 100 100 100 100 100 100 100 100 100 100 100
100 100 100 100 100 100 100 100 100 100 100 100 100 100 100 100 100 100 100 100 100 99
100 100 100 100 100 100 100 100 100 100 100 100 100 100 100 100 100 100 100 100 100 100
100 100 100 100 100 100 100 100 100 100 100 100 100 100 100 100 100 100 100 100 100 100
100 100 100 100 100 100 100 100 100 100 100 100 100 100 100 100 100 100 100 100 100 100
100 100 100 100 100 100 100 100 100 100 100 100 100 100 100 100 100 100 100 100 94 100
100 100 100 100 100 100 100 100 100 100 100 100 100 100 100 98 74 70 21 30 96 100

GFSNIL_prec_cloud_030.txt.gz
Cloud_Cover
41 51 27 5 3 10 10 57 10 19 64 100 100 100 100 100 100 100 100 100 100 100
12 96 40 4 0 5 13 22 100 100 100 100 100 100 100 100 100 100 100 100 100 100
0 66 43 32 13 12 93 100 100 100 100 87 100 100 100 100 100 100 100 100 100 100
18 98 99 64 43 53 100 100 100 100 100 100 100 100 100 100 100 100 100 100 100 100
100 100 100 100 100 99 88 77 100 100 100 100 100 100 100 100 100 100 100 100 100 100
100 100 100 100 100 100 100 100 100 100 100 100 100 100 100 100 100 100 100 100 100 100
100 100 100 100 100 100 100 100 100 100 100 100 100 100 100 100 100 100 100 100 100 100
100 100 100 100 100 100 100 100 100 100 100 100 100 100 100 100 100 100 100 100 100 100
100 87 100 100 100 100 100 100 100 100 100 100 100 100 100 100 100 100 100 100 100 100
100 78 98 100 100 100 100 100 100 100 100 100 100 100 100 100 100 100 100 100 100 100
100 100 100 100 100 100 100 100 100 100 100 100 100 100 100 100 100 100 100 100 100 100
100 100 100 100 100 100 100 100 100 100 100 100 100 100 100 100 100 100 100 100 100 100
100 100 100 100 100 100 100 100 100 100 100 100 100 100 100 100 100 100 100 100 100 92
100 100 100 100 100 100 100 100 100 100 100 100 100 100 100 100 100 95 93 47 47 48

GFSNIL_prec_cloud_033.txt.gz
Cloud_Cover
5 16 100 73 19 55 97 83 34 31 25 7 8 36 98 100 100 100 100 100 100 100
0 0 2 100 98 66 31 14 14 17 29 31 32 19 94 100 100 100 100 100 100 100
0 0 2 100 100 74 48 34 17 5 35 67 93 98 88 100 100 100 100 100 100 100
0 49 81 100 100 100 96 99 98 94 63 46 96 100 100 100 100 100 100 100 100 100
8 49 100 100 100 100 100 100 100 100 100 100 100 100 100 100 100 100 100 100 100 100
7 75 100 100 100 100 100 100 100 100 100 100 100 100 100 100 100 100 100 100 100 100
41 100 100 100 50 100 100 100 100 88 91 78 100 100 100 100 100 100 100 100 100 100
47 98 86 84 100 100 100 100 100 100 96 97 100 100 100 100 100 100 100 100 100 100
5 5 33 64 100 100 100 100 100 100 100 100 100 100 100 100 100 100 100 100 100 100
97 99 100 100 100 100 100 100 100 100 100 100 100 100 100 100 100 100 100 100 100 100
99 100 100 100 100 100 100 100 100 100 100 100 100 100 100 100 100 100 100 100 100 100
100 100 100 100 100 100 100 100 100 100 100 100 100 100 100 100 100 100 100 100 100 100
100 100 100 100 100 100 100 100 100 100 100 100 100 100 100 100 100 100 100 100 100 100
100 100 100 100 100 100 100 100 100 100 100 100 100 100 100 100 100 100 100 100 100 100

GFSNIL_prec_cloud_036.txt.gz
Cloud_Cover
5 6 23 34 10 10 8 28 72 100 100 100 98 84 75 50 99 100 100 100 100 100
0 1 0 2 0 15 0 5 21 100 100 100 100 100 100 88 100 100 100 100 100 100
0 0 0 0 2 52 3 43 100 100 100 98 100 100 100 100 100 100 100 100 100 100
0 0 0 14 100 100 100 100 100 100 100 100 100 100 100 100 100 100 100 100 100 100
0 0 2 99 100 100 100 100 100 100 100 100 100 100 100 100 100 100 100 100 100 100
1 1 3 39 75 81 100 100 100 100 100 100 100 100 100 100 100 100 100 100 100 100
36 54 35 5 56 74 100 100 100 100 100 100 100 100 100 100 100 100 100 100 100 100
5 38 43 21 29 34 34 88 100 92 100 100 100 100 100 100 100 100 100 100 100 100
58 27 95 69 56 90 64 10 24 100 100 100 100 100 100 100 100 100 100 100 100 100
100 68 99 100 100 100 96 98 100 100 100 100 100 100 100 100 100 100 100 100 100 100
78 79 100 100 100 100 100 100 100 100 100 100 100 100 100 100 100 100 100 100 100 100
99 99 100 100 100 100 100 100 100 100 100 100 100 100 100 100 100 100 100 100 100 100
100 100 100 100 100 100 100 100 100 100 100 100 100 100 100 100 100 100 100 100 100 100
100 100 99 100 100 100 100 100 100 100 100 100 100 100 100 100 100 100 100 100 100 100

GFSNIL_prec_cloud_039.txt.gz
Cloud_Cover
6 5 3 5 89 90 22 59 68 12 62 100 100 100 100 100 100 100 52 12 99 100
5 5 22 98 87 52 12 0 0 57 36 100 100 100 100 100 100 100 100 100 100 100
85 67 2 1 0 0 0 5 37 64 94 100 100 100 100 100 100 100 100 100 100 100
5 5 2 0 6 69 92 93 86 100 100 100 100 100 100 100 100 100 100 100 100 100
0 3 33 34 58 100 100 100 100 100 100 99 100 100 100 100 100 100 100 100 100 100
17 49 59 8 3 30 52 54 38 38 97 98 95 100 100 100 100 100 100 100 100 100
35 18 0 0 4 4 2 8 42 24 19 38 100 100 100 100 100 100 100 100 100 100
43 29 5 4 9 9 2 12 38 27 40 70 76 100 100 100 100 100 100 100 100 100
96 81 61 62 55 73 99 100 100 100 100 80 93 99 100 100 100 100 100 100 100 100
91 87 73 73 100 100 100 100 100 100 100 100 100 100 100 100 100 100 100 100 100 100
84 78 97 100 100 100 100 100 100 100 100 100 100 100 100 100 100 100 100 100 100 100
98 100 100 100 100 100 100 100 100 100 100 100 100 100 100 100 100 100 100 100 100 100
100 100 100 100 100 100 100 100 100 100 100 99 98 92 99 100 100 100 100 100 100 100
100 100 99 100 100 100 100 98 78 67 79 94 48 97 100 100 100 100 100 100 100 100

GFSNIL_prec_cloud_042.txt.gz
Cloud_Cover
41 41 99 80 52 45 36 82 100 79 5 5 66 62 86 100 100 100 100 100 100 100
66 67 34 56 21 6 5 5 5 19 85 85 78 100 100 100 100 100 100 100 100 100
80 78 21 60 63 60 16 5 5 63 4 2 78 100 100 100 99 100 100 100 100 100
56 92 86 77 7 28 78 77 69 51 5 13 98 100 100 100 100 100 100 100 100 100
99 51 100 85 5 31 100 100 48 92 91 100 100 100 100 100 100 100 100 100 100 100
8 5 53 5 5 0 2 0 0 0 7 76 94 99 100 73 70 100 100 100 100 100
5 3 5 1 0 0 0 0 0 0 7 17 36 43 64 97 98 100 100 100 100 100
48 1 5 0 1 2 30 65 39 41 66 53 96 84 78 26 95 95 100 100 100 100
69 100 100 98 100 52 44 36 92 98 74 100 86 99 100 47 85 89 100 100 100 100
100 100 100 100 100 100 100 100 100 100 100 100 100 100 100 89 100 100 100 100 100 100
100 100 100 100 100 100 100 100 100 100 100 100 100 100 100 87 64 66 99 100 100 100
100 100 100 100 100 100 100 100 100 100 100 100 100 100 87 39 65 58 86 100 100 100
100 100 100 100 100 100 100 100 100 100 97 45 19 58 10 5 5 34 67 78 100 100
100 100 100 100 100 100 96 25 16 97 86 58 13 5 5 2 0 0 0 2 4 4

GFSNIL_prec_cloud_045.txt.gz
Cloud_Cover
64 80 100 26 8 5 5 5 5 49 89 89 92 94 54 100 25 50 75 97 98 100
100 89 98 37 44 21 12 94 30 95 48 6 82 100 22 5 88 94 41 41 70 98
100 60 44 77 73 66 61 87 89 62 5 5 36 6 27 82 98 99 100 100 100 100
95 76 100 94 58 100 100 100 74 44 52 19 13 6 1 10 12 92 98 93 100 100
49 100 100 100 100 100 100 90 87 47 76 0 7 99 97 100 100 100 93 96 95 100
100 100 100 100 100 87 7 5 5 5 1 0 1 35 99 100 97 100 100 100 100 100
100 100 100 100 31 5 2 3 0 0 0 0 0 0 2 24 75 80 93 100 100 100
100 100 98 68 4 5 2 39 83 35 68 44 48 46 0 9 29 43 94 100 100 100
100 100 100 100 100 100 100 86 63 89 67 77 100 100 100 66 86 78 100 100 100 100
100 100 100 100 100 100 100 100 100 100 100 100 100 100 100 79 100 100 100 100 99 93
100 100 100 100 100 100 100 100 100 100 100 100 100 100 100 56 21 51 57 47 35 33
100 100 100 100 100 100 100 100 100 100 100 100 100 65 9 28 13 15 32 29 7 5
100 100 100 100 100 100 100 100 100 57 32 5 5 5 2 5 5 5 5 4 0 1
100 100 99 100 100 77 13 53 100 100 90 7 1 5 5 2 0 0 0 0 0 4

GFSNIL_prec_cloud_048.txt.gz
Cloud_Cover
6 28 62 83 97 60 59 88 5 5 8 5 56 16 5 24 65 38 66 52 96 100
60 57 73 24 54 78 14 5 23 54 58 99 86 26 58 66 100 100 88 72 63 96
49 98 100 100 90 66 85 100 100 76 61 32 17 42 18 23 74 68 84 99 100 100
100 100 100 100 100 100 100 100 70 88 93 19 5 5 30 18 16 42 99 88 100 100
100 100 100 100 100 100 86 83 100 93 10 5 5 5 7 2 1 15 95 100 100 100
100 100 100 100 100 100 98 99 60 25 21 53 10 18 0 31 67 95 100 98 100 100
100 93 100 100 100 100 99 77 31 50 31 12 3 0 0 0 0 6 96 100 100 100
100 100 100 62 100 100 100 100 70 13 27 83 99 70 15 39 86 93 99 99 100 95
100 100 100 100 100 100 100 100 95 87 100 100 100 100 100 100 100 100 100 100 100 100
100 100 100 100 100 100 100 100 100 100 100 100 98 100 99 100 100 100 100 89 53 79
100 100 100 100 100 100 100 100 100 100 100 100 100 99 68 28 40 52 59 45 40 31
100 100 100 100 100 100 100 100 100 100 100 92 12 5 5 28 33 9 14 8 5 4
100 100 100 100 100 100 100 100 36 16 54 7 5 5 5 2 5 5 3 0 0 4
100 100 100 100 100 90 99 100 100 96 74 5 4 4 5 4 5 5 5 0 0 5

GFSNIL_prec_cloud_051.txt.gz
Cloud_Cover
99 100 100 100 100 100 100 90 78 96 86 91 58 90 51 65 81 94 100 100 100 62
100 51 54 50 65 75 80 98 74 70 99 91 100 100 94 100 100 100 100 100 100 99
100 91 81 69 56 46 57 100 100 95 96 95 93 29 46 46 66 99 99 100 100 100
92 78 71 94 100 100 100 100 100 95 88 87 69 51 5 23 37 91 100 77 56 100
93 92 95 98 100 86 100 100 90 100 100 71 27 14 5 48 67 68 59 67 100 100
63 89 87 96 100 100 100 100 98 70 15 38 54 5 40 54 61 93 86 74 45 4
100 100 100 100 100 100 99 96 97 25 61 44 5 14 62 67 82 87 94 89 70 31
100 100 100 100 100 100 100 83 27 92 100 100 100 100 100 100 100 100 100 100 100 100
100 100 100 100 100 100 100 100 100 100 100 100 100 100 100 100 100 100 100 100 100 95
100 100 100 100 100 100 100 100 100 100 96 76 100 100 100 100 100 97 36 19 22 55
100 100 100 100 100 100 100 100 100 100 49 35 78 65 51 19 20 64 100 76 51 16
100 100 100 100 100 100 100 100 100 100 74 5 5 5 5 12 28 5 5 4 2 4
100 100 100 100 100 100 100 100 60 19 74 7 5 5 5 1 0 4 2 0 0 5
100 100 100 100 100 100 99 100 50 29 14 7 3 5 5 5 5 0 0 0 5 5

GFSNIL_prec_cloud_054.txt.gz
Cloud_Cover
100 100 100 100 100 100 100 100 100 100 100 100 100 100 100 100 100 100 100 100 100 100
100 100 100 100 100 100 100 100 100 100 100 100 100 100 100 100 100 100 100 100 100 100
99 100 100 100 100 100 100 100 100 100 100 100 100 100 100 92 88 100 88 61 94 100
5 92 100 100 100 100 100 100 100 100 100 100 98 72 65 58 68 100 95 74 40 84
0 5 26 90 91 100 100 100 100 100 100 89 37 67 77 5 5 5 6 5 100 100
4 1 4 6 6 6 18 58 51 73 66 81 74 77 27 75 61 55 54 26 100 64
52 65 86 38 60 68 51 99 94 69 100 88 100 95 100 100 100 100 100 100 100 82
100 100 100 100 100 100 100 100 100 100 100 100 100 100 100 100 100 100 100 100 100 100
100 100 100 100 100 100 100 100 100 100 100 100 100 100 100 100 100 98 65 100 67 99
100 100 100 100 100 100 100 100 100 100 100 100 100 100 100 100 39 8 5 7 11 6
100 100 100 100 100 100 100 100 100 100 100 100 100 100 73 10 11 99 100 55 60 6
100 100 100 100 100 100 100 100 100 100 100 100 100 47 5 11 5 5 5 4 5 5
100 100 100 100 100 100 100 100 100 100 100 100 76 5 0 0 0 0 0 5 5 5
100 100 100 100 100 100 100 100 100 100 100 96 93 8 5 3 0 0 0 2 5 5

GFSNIL_prec_cloud_057.txt.gz
Cloud_Cover
100 100 100 100 100 100 100 100 100 100 100 100 100 100 100 100 100 100 100 100 100 100
75 98 100 100 100 100 100 100 100 100 100 100 100 100 100 100 100 100 100 100 100 100
100 100 100 100 100 100 100 100 100 100 100 100 100 100 100 100 100 100 100 100 96 92
16 42 37 58 100 100 100 100 100 100 100 100 100 100 100 100 100 100 100 99 100 98
5 5 5 8 78 100 100 100 100 100 100 100 100 97 95 87 96 90 70 100 98 67
0 0 3 21 69 91 97 96 70 39 36 41 47 32 43 95 92 100 97 100 100 100
5 15 38 32 21 10 5 8 24 80 98 56 100 100 100 100 100 100 100 100 100 98
73 40 86 100 90 59 93 76 100 100 100 100 100 100 100 100 100 100 100 100 100 100
100 100 96 88 100 100 100 100 100 100 100 100 100 100 100 100 100 100 100 100 100 99
100 100 100 100 100 100 100 100 100 100 100 100 100 100 100 98 100 100 100 100 61 5
100 100 100 100 100 100 100 100 100 100 100 100 100 100 100 100 100 94 98 87 6 5
100 100 100 100 100 100 100 100 100 100 100 100 100 100 100 100 87 100 100 23 5 3
100 100 100 100 100 100 100 100 100 100 100 100 100 100 100 100 100 100 100 5 0 5
100 100 100 100 100 100 100 100 100 100 100 100 100 100 100 100 100 100 56 4 0 0

GFSNIL_prec_cloud_060.txt.gz
Cloud_Cover
100 100 100 100 100 100 100 100 100 100 100 100 100 100 100 100 100 100 100 100 100 100
95 71 99 100 100 100 100 100 100 100 100 100 100 100 100 100 100 100 100 100 100 100
88 98 100 100 100 100 100 100 100 100 100 100 100 100 100 100 100 100 100 100 100 100
56 26 27 91 100 100 100 100 100 100 100 100 100 100 100 100 100 100 100 100 100 100
99 99 68 97 71 40 81 100 100 100 100 100 100 100 100 100 100 100 100 42 26 24
15 96 98 12 83 86 92 89 91 100 100 100 100 100 100 100 100 41 5 18 100 100
96 96 100 69 30 9 5 7 20 36 30 26 49 91 100 96 98 96 100 100 100 100
100 100 100 96 87 77 100 71 93 100 100 100 98 100 100 100 100 100 100 100 100 100
34 97 100 100 100 100 100 100 100 100 100 100 100 100 100 100 100 100 100 100 100 100
83 92 100 100 100 100 100 100 100 100 100 100 100 100 100 100 100 100 100 100 78 100
88 88 100 100 100 100 100 100 100 100 100 100 100 100 100 100 100 100 100 100 100 100
100 98 100 100 100 100 100 100 100 100 100 100 100 100 100 100 100 100 100 100 100 100
99 100 100 100 100 100 100 100 100 100 100 100 100 100 100 100 100 100 100 100 100 100
100 100 100 100 100 100 100 100 100 100 100 100 100 100 100 100 100 100 100 100 73 81

GFSNIL_prec_cloud_063.txt.gz
Cloud_Cover
91 62 73 87 85 100 100 100 100 100 100 100 100 100 100 100 100 100 100 100 100 100
82 68 74 98 97 100 96 100 100 100 100 100 100 100 100 100 100 100 100 100 100 100
100 100 98 90 100 74 68 64 99 97 100 100 100 100 100 100 100 100 100 100 100 100
100 100 100 98 95 85 85 83 88 100 100 100 100 100 100 100 100 100 100 100 100 100
100 100 100 100 100 100 98 86 78 59 94 100 100 100 100 100 100 100 100 100 100 100
100 100 100 95 100 100 39 5 47 51 94 100 100 100 100 100 100 100 100 100 100 95
100 100 100 100 100 100 100 89 59 6 5 45 53 43 83 95 88 96 86 91 27 21
100 100 100 100 100 100 98 100 100 98 97 100 98 100 100 100 100 100 100 97 97 100
5 100 100 100 100 100 100 100 100 100 100 100 100 100 100 100 100 100 100 100 100 100
1 18 100 100 80 100 100 100 100 100 100 100 100 100 100 100 100 100 100 99 100 100
18 85 100 94 76 98 100 100 100 100 100 100 100 100 100 100 100 100 100 100 100 100
44 96 100 94 95 100 100 100 100 100 100 100 100 100 100 100 96 100 100 100 100 100
56 100 85 100 100 100 100 100 100 100 100 100 100 100 100 100 100 100 100 100 100 100
100 100 100 100 100 100 100 100 100 100 100 100 100 100 100 100 100 100 100 100 100 100

GFSNIL_prec_cloud_066.txt.gz
Cloud_Cover
100 100 100 100 99 79 100 92 100 100 100 100 100 100 100 100 100 100 100 100 100 100
100 100 100 100 100 100 100 100 83 100 100 100 100 100 100 100 100 100 100 100 100 100
100 100 100 100 74 100 98 99 48 45 70 80 80 100 100 100 100 100 100 100 100 100
100 99 100 100 100 100 100 72 87 82 100 93 100 99 52 99 82 100 100 100 100 100
100 100 100 100 100 100 87 98 100 80 91 100 100 100 100 39 80 100 100 100 100 100
88 100 100 100 100 100 98 100 100 100 100 89 99 99 88 78 34 6 29 87 94 90
17 44 99 100 100 100 100 100 100 100 100 100 100 93 94 29 13 50 31 70 56 68
70 37 25 10 100 100 100 100 100 100 100 100 100 100 100 100 100 100 100 100 100 92
0 0 0 0 2 40 100 100 59 100 100 100 100 100 100 100 100 100 100 100 100 100
0 0 0 0 90 44 2 56 100 100 100 100 100 100 100 100 100 100 100 100 100 100
0 0 0 55 100 94 19 88 100 100 100 100 100 100 100 100 100 100 100 100 100 100
5 5 5 99 99 42 72 100 100 100 100 100 100 100 98 69 100 100 100 100 100 92
5 5 25 100 88 51 95 100 100 100 100 100 100 100 82 58 100 100 100 100 100 100
38 15 100 90 87 82 100 100 100 100 100 100 100 100 100 100 100 100 100 100 100 100

GFSNIL_prec_cloud_069.txt.gz
Cloud_Cover
100 100 100 100 100 100 100 100 100 100 100 100 100 100 100 100 100 100 100 100 100 100
100 100 100 100 100 100 100 100 100 100 100 99 98 94 95 98 100 100 100 100 100 100
100 100 100 100 100 93 82 96 94 100 100 99 100 94 40 32 78 9 60 60 87 83
100 100 100 99 100 100 100 100 100 76 93 99 100 86 63 81 31 53 34 42 33 88
100 100 100 100 97 100 100 99 100 100 100 96 83 66 54 97 80 90 92 98 77 100
100 30 29 9 100 100 100 100 100 100 100 100 100 100 98 99 99 99 100 100 100 100
53 91 93 99 42 62 100 100 100 100 100 100 88 88 100 99 100 100 100 100 100 100
0 19 16 1 24 1 5 8 36 100 100 100 100 100 84 100 99 100 100 100 100 100
0 0 0 0 0 0 0 0 28 100 100 100 100 100 100 100 100 100 100 100 100 100
0 0 0 0 0 0 0 0 0 1 84 100 100 100 100 100 100 100 100 100 100 100
3 1 0 0 0 4 7 0 0 26 99 100 100 100 100 100 100 100 100 95 100 100
5 5 6 5 16 99 62 45 45 96 100 100 100 100 100 100 100 100 60 50 64 100
5 62 100 64 13 100 65 83 96 100 100 100 100 100 47 100 100 100 72 99 100 100
68 69 93 74 99 100 98 98 100 100 100 100 100 92 74 100 100 100 100 100 100 100

GFSNIL_prec_cloud_072.txt.gz
Cloud_Cover
100 100 100 100 100 100 100 100 100 100 100 100 100 100 100 99 100 100 99 100 100 90
95 100 100 100 100 100 100 100 100 100 100 100 100 100 100 62 61 100 100 98 45 83
69 100 40 98 100 100 100 100 100 100 100 100 100 100 100 100 100 100 98 72 30 36
100 100 100 100 100 100 100 100 100 88 97 76 71 79 91 85 87 63 63 81 46 6
67 90 100 100 100 100 100 100 100 100 100 100 99 96 98 100 98 100 100 98 99 81
1 0 3 49 100 47 2 61 98 100 100 100 100 100 100 100 100 100 99 100 100 100
0 0 0 0 2 26 3 0 4 100 100 100 93 30 100 100 100 100 100 100 100 100
0 0 0 0 0 0 3 2 4 93 70 89 100 90 42 98 100 100 100 100 100 99
0 0 0 0 0 0 0 0 0 0 0 3 16 67 99 100 100 100 100 100 100 100
0 0 0 0 0 0 0 0 0 0 0 0 0 74 100 100 100 100 100 100 100 100
0 0 0 0 0 0 0 0 0 0 0 0 25 98 100 100 100 100 100 100 100 86
0 0 0 0 0 0 4 11 3 4 11 34 78 100 100 100 100 100 100 100 94 62
0 0 5 5 6 5 38 85 81 100 91 99 100 100 100 86 99 100 100 95 72 100
8 5 5 18 39 60 90 100 100 100 100 100 100 100 100 10 15 40 100 94 72 100

GFSNIL_prec_cloud_075.txt.gz
Cloud_Cover
100 100 100 100 100 100 100 100 100 100 100 100 100 100 100 100 100 100 100 100 100 100
100 100 100 100 100 100 100 100 100 100 100 100 100 100 100 100 100 100 100 100 100 100
100 100 100 100 100 100 100 100 100 100 100 100 100 100 100 100 100 100 100 100 100 100
92 100 100 100 100 100 100 100 100 100 100 100 100 100 100 100 100 100 100 100 100 92
100 100 100 100 68 100 100 100 100 100 100 100 100 100 100 91 60 89 88 98 71 84
16 85 100 100 100 100 100 100 100 94 68 42 64 95 89 100 100 51 89 100 95 100
0 0 0 1 20 8 37 20 48 29 52 64 54 42 5 4 1 0 26 100 100 100
5 2 0 0 0 0 0 0 0 0 0 0 0 0 0 0 5 20 98 100 96 99
72 5 3 0 0 0 0 0 3 0 0 0 0 0 0 45 97 100 100 100 100 100
27 35 5 4 0 0 0 0 0 0 0 0 0 0 6 25 100 100 100 100 100 100
13 5 4 0 0 0 0 0 0 0 0 0 0 0 56 89 100 100 100 100 100 100
12 5 0 0 0 0 0 2 0 0 0 0 0 3 99 100 100 100 100 100 100 100
51 5 5 1 2 0 0 65 38 100 99 6 16 56 100 100 100 100 100 100 100 94
5 5 0 0 11 5 6 58 95 100 100 100 78 84 100 100 99 37 98 100 58 6

GFSNIL_prec_cloud_078.txt.gz
Cloud_Cover
100 100 100 100 100 100 100 100 100 100 100 100 100 100 100 100 97 100 100 100 100 100
100 100 100 100 100 100 100 100 100 100 100 100 100 100 100 100 100 100 100 100 100 100
98 100 100 100 100 100 100 100 100 100 100 100 100 100 100 100 100 100 100 95 99 100
100 100 100 100 100 100 100 100 100 100 100 100 100 100 100 100 100 100 100 100 100 100
100 100 100 100 100 100 100 100 100 100 100 100 100 100 100 100 100 100 100 100 100 100
92 100 100 100 100 100 100 100 100 100 100 100 100 100 100 100 100 100 100 100 100 98
100 100 98 20 48 100 84 94 100 100 100 100 87 29 67 94 92 25 56 44 22 80
100 100 100 100 100 100 84 39 45 39 94 100 98 82 70 31 22 17 25 100 100 100
0 0 10 37 77 99 99 92 99 100 100 100 99 95 9 0 0 0 31 100 100 100
24 6 5 16 100 100 59 7 2 4 5 3 0 0 0 0 10 13 14 100 100 100
18 5 5 28 96 73 17 5 13 5 2 0 0 0 0 89 83 100 100 100 100 100
98 99 82 100 96 96 57 34 5 5 0 0 0 0 47 98 100 100 76 100 100 100
100 100 100 100 100 100 57 24 25 100 81 4 5 0 92 100 100 72 90 100 100 100
100 100 100 100 100 98 22 67 80 100 100 99 37 6 96 100 65 45 54 99 100 100

GFSNIL_prec_cloud_081.txt.gz
Cloud_Cover
100 100 100 100 100 100 100 100 100 100 100 100 100 100 100 100 100 100 100 100 100 100
100 100 100 100 100 100 100 100 100 100 100 100 100 100 100 100 100 100 100 100 100 100
100 100 100 100 100 100 100 100 100 100 100 100 100 100 100 100 100 100 100 100 100 100
100 100 100 100 100 100 100 100 100 100 100 100 100 100 100 100 100 100 100 100 100 88
99 100 100 100 100 100 100 100 100 100 100 100 100 100 100 100 100 100 100 91 85 97
75 100 100 100 96 100 100 100 100 100 100 100 100 96 95 100 100 100 100 100 100 100
100 100 100 94 100 99 24 75 100 100 100 100 99 100 100 100 100 100 100 100 100 100
100 100 100 100 100 100 100 100 100 100 100 100 100 100 100 100 100 100 100 100 100 100
100 100 100 100 100 100 100 100 100 100 100 100 100 100 100 100 100 100 99 98 49 80
100 100 100 100 100 100 100 100 100 100 100 100 100 100 84 6 5 5 5 11 28 97
100 100 100 100 100 96 95 76 35 53 6 19 29 54 71 96 83 98 100 100 96 100
22 76 100 100 100 61 30 99 90 98 70 79 91 69 25 96 100 100 94 62 51 100
100 100 100 100 100 100 100 98 92 100 100 100 27 21 57 100 100 100 100 49 89 100
100 100 100 100 100 100 100 100 100 100 100 98 100 100 84 100 100 100 92 100 79 99

GFSNIL_prec_cloud_084.txt.gz
Cloud_Cover
100 100 100 100 100 100 100 100 100 100 100 100 100 100 100 100 100 100 100 100 100 100
100 100 100 100 100 100 100 100 100 100 100 100 100 100 100 100 100 100 100 100 100 100
100 100 100 100 100 100 100 100 100 100 100 100 100 100 100 100 100 100 100 100 100 100
100 100 100 100 100 100 100 100 100 100 100 100 100 100 100 100 100 100 100 100 100 100
100 100 100 100 100 100 100 100 100 100 100 100 100 100 100 100 100 100 100 100 100 100
100 100 100 100 100 100 100 100 100 100 100 100 100 100 100 100 100 100 100 100 100 100
88 100 100 100 100 100 100 100 100 100 100 100 100 100 100 100 100 100 100 100 100 100
100 100 100 100 100 100 100 100 100 100 100 100 100 100 100 100 100 100 100 100 100 100
62 91 5 34 100 100 100 100 100 100 100 100 100 100 100 100 94 100 100 100 100 89
88 25 70 23 78 56 44 99 99 100 100 100 100 100 100 89 70 100 100 100 96 78
100 100 95 73 100 100 91 80 58 100 87 82 100 100 100 100 97 100 100 100 98 87
100 100 100 67 88 100 100 100 100 100 100 100 100 100 100 100 47 94 100 100 100 100
50 97 100 100 100 100 100 100 100 100 100 100 100 100 100 95 100 100 100 100 98 100
34 67 41 51 99 96 97 100 100 100 100 100 100 100 100 100 100 100 100 97 100 96

GFSNIL_prec_cloud_087.txt.gz
Cloud_Cover
100 100 100 100 100 100 100 100 100 89 100 100 100 100 100 100 100 100 100 100 100 100
100 100 100 100 100 100 100 100 100 100 100 100 100 100 100 100 100 100 100 100 100 100
100 100 100 100 100 100 100 100 100 100 100 100 100 100 100 100 100 100 100 100 100 100
100 100 100 100 100 100 100 100 100 100 100 100 100 100 100 100 100 100 100 100 100 100
100 100 100 100 100 100 100 100 100 100 100 100 100 100 100 100 100 100 100 100 100 100
100 100 100 100 100 100 100 100 100 100 100 100 100 100 100 100 100 100 100 100 100 100
100 100 100 100 100 100 100 100 100 100 100 100 100 100 100 100 100 100 100 100 100 100
100 100 100 100 100 100 100 100 100 100 100 100 100 100 100 100 100 100 100 100 100 100
100 100 100 100 100 100 100 100 100 100 100 100 100 100 100 100 100 100 100 100 100 100
78 100 10 88 100 100 100 100 100 100 97 100 100 100 100 100 100 100 100 100 100 100
100 28 11 5 15 33 97 100 100 100 100 100 100 100 100 100 100 100 100 100 100 100
100 79 54 97 84 85 91 83 28 6 31 100 100 99 100 100 100 100 100 100 100 100
38 73 100 100 100 100 100 100 100 100 98 69 94 100 100 100 100 100 100 100 100 100
5 33 100 100 100 100 100 100 100 100 93 100 100 100 100 100 100 100 100 100 100 100

GFSNIL_prec_cloud_090.txt.gz
Cloud_Cover
100 100 100 100 100 100 100 100 100 100 100 100 100 100 100 100 100 100 100 100 100 100
100 100 100 100 100 100 100 100 100 100 100 100 100 100 100 100 100 100 100 100 100 100
100 100 100 100 100 100 100 100 100 100 100 100 100 100 100 100 100 100 100 100 100 100
100 100 100 100 100 100 100 100 100 100 100 100 100 100 100 100 100 100 100 100 100 100
100 100 100 100 100 100 100 100 100 100 100 100 100 100 100 100 100 100 100 100 100 100
100 100 100 100 100 100 100 100 100 100 100 100 100 100 100 100 100 100 100 100 100 100
100 100 100 100 100 100 100 100 100 100 100 100 100 100 100 100 100 100 100 100 100 100
100 100 100 100 100 100 100 100 100 100 100 100 100 100 100 100 100 100 100 100 100 100
100 100 100 100 100 100 100 100 100 100 100 100 100 100 100 100 100 100 100 100 100 100
100 100 100 100 100 100 100 100 100 100 100 100 100 100 100 100 100 100 100 100 100 100
100 100 100 95 99 100 100 100 100 100 82 100 100 100 100 100 56 100 100 100 100 100
100 100 100 100 100 100 100 100 100 100 100 100 100 100 93 46 86 100 100 100 100 100
99 50 45 87 97 100 100 100 100 100 100 100 96 100 100 47 79 100 100 100 100 100
30 12 5 9 57 90 100 100 98 100 100 100 100 100 99 91 100 100 100 100 100 100

GFSNIL_prec_cloud_093.txt.gz
Cloud_Cover
100 100 100 100 100 100 100 100 100 100 100 100 100 100 100 100 100 100 100 100 100 100
100 100 100 100 100 100 100 100 100 100 100 100 100 100 100 100 100 100 100 100 100 100
100 100 100 100 100 100 100 100 100 100 100 100 100 100 100 100 100 100 100 100 100 100
100 100 100 100 100 100 100 100 100 100 100 100 100 100 100 100 100 100 100 100 100 100
100 100 100 100 100 100 100 100 100 100 100 100 100 100 100 100 100 100 100 100 100 100
100 100 100 100 100 100 100 100 100 100 100 100 100 100 100 100 100 100 100 100 100 100
100 100 100 100 100 100 100 100 100 100 100 100 100 100 100 100 100 100 100 100 100 100
100 100 100 100 100 100 100 100 100 100 100 100 100 100 100 100 100 100 100 100 100 100
100 100 100 100 100 100 100 100 100 100 100 100 100 100 100 100 100 100 100 100 100 100
100 100 100 100 100 100 100 100 100 100 100 100 100 100 100 100 100 100 100 100 100 100
100 100 100 100 100 100 100 100 100 100 100 100 100 100 100 100 100 100 100 100 100 100
99 88 100 100 100 98 100 99 100 100 100 100 100 100 100 100 100 100 69 78 100 100
100 100 98 98 98 100 100 82 100 100 100 100 100 100 100 100 100 100 100 98 100 100
74 99 98 100 73 5 7 4 38 78 100 99 97 100 100 100 100 100 100 100 100 100

GFSNIL_prec_cloud_096.txt.gz
Cloud_Cover
100 100 100 100 100 100 100 100 100 100 100 100 100 100 100 100 100 100 100 100 100 100
100 100 100 100 100 100 100 100 100 100 100 100 100 100 100 100 100 100 100 100 100 100
100 100 100 100 100 100 100 100 100 100 100 100 100 100 100 100 100 100 100 100 100 100
100 100 100 100 100 100 100 100 100 100 100 100 100 100 100 100 100 100 100 100 100 100
100 100 100 100 100 100 100 100 100 100 100 100 100 100 100 100 100 100 100 100 100 100
100 100 100 100 100 100 100 100 100 100 100 100 100 100 100 100 100 100 100 100 100 100
100 100 100 100 100 100 100 100 100 100 100 100 100 100 100 100 100 100 100 100 100 100
100 100 100 100 100 100 100 100 100 100 100 100 100 100 100 100 100 100 100 100 100 100
100 100 100 100 100 100 100 100 100 100 100 100 100 100 100 100 100 100 100 100 100 100
100 100 100 100 100 100 100 100 100 100 100 100 100 100 100 100 100 100 100 100 100 100
100 100 100 100 100 100 100 100 100 100 100 100 100 100 100 100 100 100 100 100 100 100
100 100 100 100 100 100 100 100 100 100 100 100 100 100 100 100 100 100 100 100 100 100
74 96 100 100 100 97 99 100 100 100 100 100 100 100 100 100 100 100 100 100 100 100
100 74 95 100 100 100 100 90 100 100 99 95 68 96 100 100 100 100 100 100 100 100

GFSNIL_prec_cloud_099.txt.gz
Cloud_Cover
100 100 100 100 100 100 100 100 100 100 100 100 100 100 100 100 100 100 100 100 100 100
100 100 100 100 100 100 100 90 100 100 100 100 100 100 100 100 100 100 100 100 100 100
100 100 100 100 100 100 100 100 100 100 100 100 100 100 100 100 100 100 100 100 100 100
100 100 100 100 100 100 100 100 100 100 100 100 100 100 100 100 100 100 100 100 100 100
100 100 100 100 100 100 100 100 100 100 100 100 100 100 100 100 100 100 100 100 100 100
100 100 100 100 100 100 100 100 100 100 100 100 100 100 100 100 100 100 100 100 100 100
100 100 100 100 100 100 100 100 100 100 100 100 100 100 100 100 100 100 100 100 100 100
100 100 100 100 100 100 100 100 100 100 100 100 100 100 100 100 100 100 100 100 100 100
100 100 100 100 100 100 100 100 100 100 100 100 100 100 100 100 100 100 100 100 100 100
100 100 100 100 100 100 100 100 100 100 100 100 100 100 100 100 100 100 100 100 100 100
100 100 100 100 100 100 100 100 100 100 100 100 100 100 100 100 100 100 100 100 100 100
85 100 100 100 100 98 37 97 100 100 100 100 100 100 100 100 100 100 100 100 100 100
25 86 31 18 7 57 98 100 100 100 100 100 100 100 100 100 100 100 100 100 100 100
93 92 97 98 99 100 100 100 27 10 43 66 78 64 24 15 30 100 100 100 100 100

GFSNIL_prec_cloud_102.txt.gz
Cloud_Cover
100 100 100 100 100 100 100 100 100 100 100 100 100 100 100 100 100 100 100 100 100 100
100 100 100 100 100 100 100 100 100 100 100 100 100 100 100 100 100 100 100 100 100 100
100 100 100 100 100 100 100 100 100 100 100 100 100 100 100 100 100 100 100 100 100 100
100 100 100 100 100 100 100 100 100 100 100 100 100 100 100 100 100 100 100 100 100 100
100 100 100 100 100 100 98 100 100 100 100 100 100 100 100 100 100 100 100 100 100 100
100 100 100 100 100 100 100 100 100 100 100 100 100 100 100 100 100 100 100 100 100 100
100 100 100 100 100 100 100 100 100 100 100 100 100 100 100 100 100 100 100 100 100 100
100 100 100 100 100 100 100 100 100 100 100 100 100 100 100 100 100 100 100 100 100 100
100 100 100 100 100 100 100 100 100 100 100 100 100 100 100 84 99 100 100 100 100 100
100 100 100 100 44 76 100 93 89 100 100 100 100 100 100 100 100 100 100 100 100 100
0 12 17 5 27 5 52 85 98 100 79 83 97 96 100 100 95 80 100 100 100 100
0 1 2 10 20 48 23 26 32 30 78 45 7 55 75 72 74 100 97 100 100 100
13 14 8 5 5 6 5 46 25 6 5 5 5 48 40 73 88 95 100 100 100 100
40 48 85 24 46 85 84 71 47 81 55 8 5 5 5 5 5 5 9 21 38 35

GFSNIL_prec_cloud_105.txt.gz
Cloud_Cover
100 100 100 100 100 100 100 100 100 100 100 100 100 100 100 100 100 100 100 100 100 100
100 100 100 100 100 100 100 100 100 100 100 100 78 100 100 100 100 100 100 100 100 100
100 100 100 100 100 100 100 100 100 100 100 100 100 100 100 100 100 100 100 100 100 100
100 100 100 100 100 100 100 100 100 100 100 100 100 100 100 100 100 100 100 100 100 100
100 100 100 100 100 100 100 100 79 100 100 92 100 100 100 100 100 100 100 100 100 100
100 100 100 100 100 100 100 100 100 100 100 100 100 100 100 100 100 100 100 100 100 100
100 100 100 100 100 100 100 100 100 100 100 100 100 100 100 100 100 100 100 100 100 100
88 100 100 100 100 100 100 100 100 100 100 100 100 100 100 100 100 100 100 100 100 100
100 100 100 100 100 100 100 100 100 100 100 100 100 100 100 100 100 100 100 100 100 100
93 10 60 56 83 97 61 95 54 73 100 100 90 91 96 100 100 100 100 100 100 100
0 0 2 5 4 8 14 26 47 38 6 56 84 19 18 5 32 100 56 67 100 100
0 0 0 0 0 0 3 0 0 0 0 0 0 4 5 5 5 5 4 11 78 97
0 0 5 5 5 5 5 5 33 55 22 32 50 12 16 55 94 84 9 22 5 5
5 5 5 7 56 95 84 75 5 5 0 4 5 5 5 5 5 16 26 55 29 17

GFSNIL_prec_cloud_108.txt.gz
Cloud_Cover
100 100 100 100 99 97 100 100 100 100 93 100 100 100 100 100 100 100 100 100 100 100
100 87 88 99 100 100 100 100 100 97 100 100 100 100 100 100 100 100 100 100 100 100
99 100 99 100 100 100 100 100 100 100 100 100 100 100 100 100 100 100 93 100 100 100
100 100 100 100 100 100 100 100 100 100 100 100 100 100 100 100 100 100 100 100 100 100
100 100 100 100 100 100 100 100 100 99 100 100 100 100 100 100 100 100 100 100 100 100
100 100 100 100 100 100 99 100 100 100 100 100 98 100 100 100 100 100 100 100 100 100
100 100 100 100 100 100 100 100 100 100 100 100 100 100 100 100 100 100 100 100 100 100
100 100 100 100 100 100 100 100 100 96 83 92 91 99 85 99 100 100 100 100 100 91
99 100 99 100 100 100 100 100 100 98 100 100 100 98 88 100 99 100 100 100 100 100
2 4 6 58 13 17 96 100 100 100 100 100 100 53 100 100 100 100 100 100 100 100
0 0 0 0 1 5 5 9 7 35 31 16 6 23 5 22 36 100 71 41 93 52
0 0 0 0 0 0 0 0 0 0 0 1 0 5 5 5 19 39 54 18 16 61
5 2 0 0 0 0 0 1 3 5 6 5 5 5 5 5 5 5 5 5 44 49
4 5 5 5 5 5 5 5 5 5 5 5 5 5 5 5 5 5 11 5 5 5

GFSNIL_prec_cloud_111.txt.gz
Cloud_Cover
100 100 100 100 100 100 89 89 100 100 100 100 100 100 100 100 100 100 100 100 100 95
100 100 100 100 94 99 100 100 100 100 100 100 100 100 100 100 100 100 100 100 100 100
100 100 100 100 100 100 100 100 100 100 100 100 100 100 100 100 100 100 100 100 100 100
100 100 100 99 87 100 100 100 100 100 100 100 100 100 100 100 100 100 100 100 100 100
100 99 100 100 100 99 100 100 100 100 100 100 100 100 99 100 100 100 100 100 100 100
100 100 100 100 100 100 100 100 100 100 100 90 100 100 100 100 100 100 100 100 100 100
100 100 98 88 90 99 100 89 100 100 100 100 100 100 100 100 100 100 100 100 100 100
100 100 100 100 100 100 100 100 100 100 100 100 100 100 100 100 100 100 100 100 100 100
31 99 100 100 100 100 100 100 100 100 100 100 100 100 100 100 100 100 100 100 100 100
0 1 0 3 39 90 23 62 92 100 100 100 100 100 94 100 100 97 100 96 88 100
1 0 0 0 0 0 0 1 5 3 34 77 100 100 100 100 100 91 64 68 98 100
5 5 2 0 0 0 0 0 0 2 5 5 5 5 8 13 5 10 31 25 7 21
5 6 8 5 5 5 5 20 69 83 54 29 41 7 79 71 60 40 29 5 5 15
100 100 100 100 100 100 100 100 100 100 87 45 14 7 40 68 85 70 35 5 5 5

GFSNIL_prec_cloud_114.txt.gz
Cloud_Cover
100 100 100 100 100 100 100 100 100 100 100 100 100 100 99 99 100 100 100 100 100 100
100 100 100 100 100 100 100 100 100 100 59 62 95 94 100 99 100 100 100 99 100 100
100 100 100 100 100 100 100 100 100 100 100 90 100 72 84 68 100 73 100 96 100 100
99 100 98 100 100 100 100 100 95 79 77 100 92 100 100 100 100 100 100 100 100 90
100 100 100 100 98 66 100 92 51 91 75 12 75 60 91 83 100 100 100 100 100 100
100 100 100 95 98 88 98 100 100 100 99 99 70 66 96 98 100 100 100 100 100 100
24 38 84 74 100 98 99 100 100 100 100 97 83 100 100 100 100 100 100 100 100 100
1 8 86 98 59 28 70 73 100 100 100 100 100 100 100 100 100 100 100 100 100 100
0 0 0 1 12 85 100 92 30 60 37 88 57 100 86 99 100 100 100 100 100 100
5 2 3 0 0 0 0 3 92 87 97 98 100 100 100 100 100 100 100 100 100 100
21 5 5 5 8 2 1 0 0 0 14 17 4 33 95 100 100 100 100 100 97 100
100 100 100 100 100 96 88 70 51 14 5 1 4 47 93 50 10 17 86 99 100 99
20 96 100 100 100 100 100 100 100 100 100 100 100 99 80 100 100 100 100 100 52 9
0 0 0 20 78 100 99 99 93 100 98 96 98 100 100 100 100 100 100 100 100 88

GFSNIL_prec_cloud_117.txt.gz
Cloud_Cover
100 100 100 100 100 100 100 100 100 100 100 100 100 100 100 100 100 100 100 100 100 100
100 100 100 100 100 100 100 100 100 100 100 100 100 100 100 100 100 100 97 100 100 100
100 100 100 100 100 100 100 100 100 100 100 100 100 100 100 100 100 100 100 48 97 49
100 100 100 100 100 100 100 100 100 100 100 100 100 100 100 100 90 95 72 88 18 100
5 7 57 89 92 100 100 95 100 100 100 100 100 100 100 41 7 29 78 60 41 100
5 1 4 20 6 88 100 100 100 100 100 100 100 89 60 36 70 67 32 87 77 88
20 5 5 1 1 3 4 4 32 94 97 100 100 100 98 95 38 66 81 81 100 100
100 100 90 45 8 4 0 3 5 5 5 14 63 50 85 93 27 57 99 100 100 100
50 97 99 100 100 100 95 30 3 0 2 5 92 30 98 74 90 100 100 100 100 100
0 0 0 4 16 74 94 100 100 100 95 28 3 50 100 100 100 100 100 100 100 100
0 0 0 0 0 0 0 5 10 33 72 99 100 82 40 11 36 24 64 90 99 100
5 0 0 0 0 0 0 0 0 5 45 16 21 84 100 100 100 100 100 100 92 81
5 5 0 0 0 0 0 0 0 0 2 5 97 98 73 49 57 94 91 95 32 7
5 5 5 2 0 0 0 0 2 4 4 0 1 1 56 96 100 84 100 100 100 100

GFSNIL_prec_cloud_120.txt.gz
Cloud_Cover
5 6 99 59 100 100 100 100 100 100 100 98 37 7 96 100 100 100 100 100 100 100
12 5 6 7 82 98 99 100 100 100 100 100 100 100 100 100 100 100 100 100 100 100
4 5 5 5 51 79 74 100 100 100 100 100 100 100 100 100 100 100 100 100 100 100
5 4 5 5 5 33 40 100 95 100 100 100 100 100 100 100 100 100 100 100 100 100
95 46 5 5 5 5 5 5 100 100 100 100 100 100 100 100 100 100 100 100 100 98
19 65 94 100 56 11 5 5 1 14 94 100 100 100 100 100 92 100 100 99 46 8
0 0 0 0 25 95 100 96 55 16 1 18 94 100 100 100 100 100 100 98 98 89
0 0 0 0 0 0 0 2 18 31 70 41 4 2 5 5 8 13 43 94 100 22
4 0 0 5 0 0 0 0 0 0 0 4 46 63 42 5 5 0 4 5 12 97
5 5 5 0 5 4 0 0 0 0 0 0 0 4 36 98 100 100 66 21 11 6
5 5 5 0 0 1 5 5 0 0 0 0 0 0 5 5 12 92 100 100 100 96
5 5 5 5 0 0 0 0 0 1 2 3 1 0 5 5 5 5 10 31 100 100
5 5 5 5 5 0 0 0 2 0 0 0 0 0 5 6 5 5 5 5 5 7
5 5 5 5 5 5 1 0 1 0 0 0 0 3 5 5 5 5 10 5 5 5